星链-36620(STARLINK-36620)

导读 | 豆包AI

STARLINK-36620是美国SpaceX公司星链星座的组网卫星,于2026年2月2日由猎鹰9号火箭从范登堡基地发射入轨,这是SpaceX 2026年第14次星链发射任务。作为全球低轨卫星互联网系统的组成部分,它将进一步完善星链星座覆盖能力,为全球地面、海洋、航空用户提供高速低时延宽带服务,推动星链手机直连、军事通信等业务发展。截至发射当日,SpaceX累计发射星链卫星超1.1万颗,在轨运营卫星超9600颗。

基本信息
目录编号:
67654
目录名称:
STARLINK-36620
国际标识:
2026-022G
轨道中心:
EARTH
卫星名称:
星链-36620
卫星全名:
星链-36620(STARLINK-36620)
卫星状态:
在轨 (已飞行40 天)
发射日期:
2026-02-02 UTC
国别 :
美国 (US)
星等 :
--
轨道信息
数据来源 国际轨道数据
星历时间: 2026-03-14T06:00:02+0800
7小时前
查看轨道信息
半长轴: 6788.04km
偏心率: 0.0001962
轨道倾角: 97.284°
近地点辐角 68.112°
升交点赤经 107.009°
平近点角 94.826°
近地点: 408.571km
远地点: 411.235km
周期: 92.763分钟
每日圈数: 15.523379
详细信息
固有亮度:
5
最大亮度:
2.5
卫星平台:
Starlink V1.0
覆盖范围:
全球
运营商:
太空探索技术公司
运营商所在国:
美国
制造商(研发单位):
太空探索技术公司
制造商所在国:
美国
使用方式:
暂无
卫星简介
Starlink 计划是 SpaceX 推出的全球卫星互联网项目,通过发射低轨道卫星,为全球尤其是偏远地区提供高速、低延迟的互联网服务。自 2019 年起,Starlink 已部署数千颗卫星,旨在缩小全球数字鸿沟,推动互联网普及。该项目还为军事、航空等行业提供通信支持,带来广泛经济效益。
2D轨道图
3D轨道图
轨道高度分析图
轨道倾角分析图
轨道综合分析图
查看轨道综合分析图